Previsão horária em Abancay

Hoje, 24 Janeiro, Domingo

Tempo Temperatura Precipitação Vento Pressão Humidade
00:00 +13°C° 0.2 mm 1 m/s 543 mmHg 95%
01:00 +13°C° 0.2 mm 1 m/s 543 mmHg 96%
02:00 +12°C° 0.1 mm 1 m/s 543 mmHg 95%
03:00 +12°C° 0.1 mm 1 m/s 543 mmHg 95%
04:00 +11°C° 0.1 mm 0 m/s 542 mmHg 94%
05:00 +11°C° 0 mm 0 m/s 543 mmHg 93%
06:00 +12°C° 0 mm 0 m/s 543 mmHg 91%
07:00 +12°C° 0 mm 0 m/s 544 mmHg 90%
08:00 +14°C° 0.2 mm 1 m/s 544 mmHg 84%
09:00 +16°C° 0.2 mm 1 m/s 545 mmHg 79%
10:00 +17°C° 0.2 mm 2 m/s 546 mmHg 73%
11:00 +18°C° 0.8 mm 2 m/s 545 mmHg 71%
12:00 +19°C° 0.8 mm 3 m/s 545 mmHg 69%
13:00 +19°C° 0.8 mm 3 m/s 545 mmHg 67%
14:00 +19°C° 1.2 mm 3 m/s 544 mmHg 69%
15:00 +19°C° 1.2 mm 3 m/s 543 mmHg 71%
16:00 +19°C° 1.2 mm 3 m/s 543 mmHg 73%
17:00 +17°C° 0.6 mm 3 m/s 542 mmHg 80%
18:00 +15°C° 0.6 mm 2 m/s 542 mmHg 86%
19:00 +14°C° 0.6 mm 2 m/s 542 mmHg 93%
20:00 +13°C° 0.2 mm 1 m/s 542 mmHg 94%
21:00 +13°C° 0.2 mm 1 m/s 542 mmHg 95%
22:00 +13°C° 0.2 mm 1 m/s 543 mmHg 96%
23:00 +13°C° 0.1 mm 1 m/s 543 mmHg 96%

Amanhã, 25 Janeiro, Segunda-feira

Tempo Temperatura Precipitação Vento Pressão Humidade
00:00 +13°C° 0.1 mm 1 m/s 543 mmHg 96%
01:00 +13°C° 0.1 mm 1 m/s 542 mmHg 96%
02:00 +13°C° 0.1 mm 1 m/s 542 mmHg 96%
03:00 +13°C° 0.1 mm 1 m/s 542 mmHg 96%
04:00 +13°C° 0.1 mm 1 m/s 542 mmHg 97%
05:00 +13°C° 0.2 mm 1 m/s 542 mmHg 95%
06:00 +13°C° 0.2 mm 1 m/s 543 mmHg 94%
07:00 +13°C° 0.2 mm 1 m/s 543 mmHg 92%
08:00 +14°C° 0.3 mm 1 m/s 544 mmHg 87%
09:00 +15°C° 0.3 mm 2 m/s 544 mmHg 82%
10:00 +17°C° 0.3 mm 2 m/s 545 mmHg 77%
11:00 +17°C° 0.6 mm 3 m/s 544 mmHg 76%
12:00 +17°C° 0.6 mm 3 m/s 544 mmHg 75%
13:00 +18°C° 0.6 mm 3 m/s 543 mmHg 75%
14:00 +18°C° 0.4 mm 3 m/s 543 mmHg 73%
15:00 +18°C° 0.4 mm 3 m/s 543 mmHg 72%
16:00 +19°C° 0.4 mm 3 m/s 542 mmHg 70%
17:00 +17°C° 0.4 mm 2 m/s 542 mmHg 77%
18:00 +15°C° 0.4 mm 2 m/s 542 mmHg 84%
19:00 +14°C° 0.4 mm 1 m/s 541 mmHg 91%
20:00 +13°C° 0.6 mm 1 m/s 542 mmHg 93%
21:00 +13°C° 0.6 mm 1 m/s 542 mmHg 94%
22:00 +13°C° 0.6 mm 1 m/s 543 mmHg 96%
23:00 +13°C° 0.3 mm 1 m/s 543 mmHg 95%

Depois de amanhã, 26 Janeiro, Terça-feira

Tempo Temperatura Precipitação Vento Pressão Humidade
00:00 +13°C° 0.3 mm 1 m/s 543 mmHg 94%
01:00 +13°C° 0.3 mm 1 m/s 542 mmHg 94%
02:00 +12°C° 0.1 mm 0 m/s 542 mmHg 93%
03:00 +11°C° 0.1 mm 0 m/s 542 mmHg 92%
04:00 +11°C° 0.1 mm 0 m/s 542 mmHg 91%
05:00 +11°C° 0 mm 0 m/s 542 mmHg 89%
06:00 +12°C° 0 mm 0 m/s 543 mmHg 88%
07:00 +12°C° 0 mm 0 m/s 543 mmHg 87%
08:00 +14°C° 0.2 mm 1 m/s 544 mmHg 83%
09:00 +15°C° 0.2 mm 1 m/s 544 mmHg 79%
10:00 +17°C° 0.2 mm 2 m/s 545 mmHg 76%
11:00 +18°C° 0.9 mm 2 m/s 545 mmHg 74%
12:00 +18°C° 0.9 mm 3 m/s 545 mmHg 72%
13:00 +19°C° 0.9 mm 3 m/s 544 mmHg 70%
14:00 +19°C° 0.9 mm 3 m/s 544 mmHg 72%
15:00 +19°C° 0.9 mm 3 m/s 543 mmHg 73%
16:00 +18°C° 0.9 mm 3 m/s 542 mmHg 74%
17:00 +17°C° 0.3 mm 2 m/s 542 mmHg 80%
18:00 +15°C° 0.3 mm 2 m/s 542 mmHg 86%
19:00 +14°C° 0.3 mm 1 m/s 541 mmHg 92%
20:00 +14°C° 0.5 mm 1 m/s 542 mmHg 92%
21:00 +14°C° 0.5 mm 1 m/s 543 mmHg 91%
22:00 +14°C° 0.5 mm 1 m/s 543 mmHg 91%
23:00 +13°C° 0.1 mm 1 m/s 543 mmHg 92%

27 Janeiro, Quarta-feira

Tempo Temperatura Precipitação Vento Pressão Humidade
00:00 +13°C° 0.1 mm 1 m/s 543 mmHg 92%
01:00 +13°C° 0.1 mm 1 m/s 543 mmHg 93%
02:00 +13°C° 0 mm 1 m/s 542 mmHg 94%
03:00 +13°C° 0 mm 1 m/s 542 mmHg 95%
04:00 +11°C° 0 mm 0 m/s 542 mmHg 96%
05:00 +13°C° 0 mm 1 m/s 542 mmHg 95%
06:00 +13°C° 0 mm 1 m/s 543 mmHg 94%
07:00 +13°C° 0 mm 1 m/s 543 mmHg 93%
08:00 +15°C° 0.2 mm 1 m/s 544 mmHg 87%
09:00 +16°C° 0.2 mm 2 m/s 545 mmHg 80%
10:00 +18°C° 0.2 mm 2 m/s 545 mmHg 74%
11:00 +18°C° 0.8 mm 2 m/s 545 mmHg 72%
12:00 +19°C° 0.8 mm 3 m/s 545 mmHg 70%
13:00 +20°C° 0.8 mm 3 m/s 545 mmHg 69%
14:00 +19°C° 0.7 mm 3 m/s 544 mmHg 72%
15:00 +18°C° 0.7 mm 3 m/s 543 mmHg 75%
16:00 +18°C° 0.7 mm 3 m/s 542 mmHg 78%
17:00 +17°C° 0.2 mm 3 m/s 542 mmHg 84%
18:00 +15°C° 0.2 mm 2 m/s 542 mmHg 89%
19:00 +14°C° 0.2 mm 1 m/s 542 mmHg 94%
20:00 +13°C° 0.5 mm 1 m/s 542 mmHg 93%
21:00 +13°C° 0.5 mm 1 m/s 543 mmHg 93%
22:00 +13°C° 0.5 mm 1 m/s 544 mmHg 92%
23:00 +13°C° 0.8 mm 1 m/s 543 mmHg 91%

28 Janeiro, Quinta-feira

Tempo Temperatura Precipitação Vento Pressão Humidade
00:00 +13°C° 0.8 mm 1 m/s 543 mmHg 91%
01:00 +12°C° 0.8 mm 1 m/s 543 mmHg 90%
02:00 +12°C° 0.1 mm 1 m/s 542 mmHg 90%
03:00 +12°C° 0.1 mm 1 m/s 542 mmHg 90%
04:00 +11°C° 0.1 mm 1 m/s 541 mmHg 90%
05:00 +12°C° 0 mm 1 m/s 542 mmHg 89%
06:00 +12°C° 0 mm 1 m/s 542 mmHg 87%
07:00 +12°C° 0 mm 1 m/s 543 mmHg 85%
08:00 +14°C° 0 mm 1 m/s 543 mmHg 79%
09:00 +16°C° 0 mm 1 m/s 544 mmHg 74%
10:00 +18°C° 0 mm 1 m/s 545 mmHg 68%
11:00 +18°C° 0.1 mm 2 m/s 545 mmHg 65%
12:00 +20°C° 0.1 mm 2 m/s 545 mmHg 61%
13:00 +21°C° 0.1 mm 3 m/s 544 mmHg 57%

29 Janeiro, Sexta-feira

Tempo Temperatura Precipitação Vento Pressão Humidade
Mostrar mais